Tracking 28790 objects as of 19-Apr-2024
HD Live streaming from Space Station
objects crossing your sky now

GORIZONT 9

Track GORIZONT 9 now!
GORIZONT 9 is classified as:


NORAD ID: 14940
Int'l Code: 1984-041A
Perigee: 35,769.5 km
Apogee: 35,806.9 km
Inclination: 10.3 °
Period: 1,435.8 minutes
Semi major axis: 42159 km
RCS: 3.9811 m2 (large)
Launch date: April 22, 1984
Source: Commonwealth of Independent States (former USSR) (CIS)
Launch site: TYURATAM MISSILE AND SPACE COMPLEX (TTMTR)
Your satellite tracking list
Your tracking list is empty




NASA's NSSDC Master Catalog

Two Line Element Set (TLE):
1 14940U 84041A   24109.62175709 -.00000300  00000-0  00000-0 0  9992
2 14940  10.2500 317.7929 0004441 237.5038 330.8769  1.00291625114027
Source of the keplerian elements: AFSPC